Date String (YYYY-MM-DD hh:mm:ss) UTC,Instrument flags,absolute air pressure of the measurement (hPa),sample flow rate (lpm),inlet stack bypass flow (lpm),air temperature of the measurement (°C),ambient temperature measured by the external sensor (°C),aerosol sample conditioner tube jacket temperature (°C),OPC LED temperature (°C),internal box temperature (°C),relative humidity of the measurement (%),span deviation,mass concentration of particles derived from Lorenz-Mie calculation of OPC scattering (μg/m³),mass concentration of particles derived from Lorenz-Mie calculation of OPC scattering (μg/m³),mass concentration of particles derived from Lorenz-Mie calculation of OPC scattering (μg/m³)
DateTimeUTC,F1_M11,P_M11,Q1_M11,Q2_M11,T1_M11,T2_M11,T3_M11,T4_M11,T5_M11,U1_M11,ZSPAN_M11,X2_M11,X0_M11,X1_M11
2024-02-11 10:00:00,SystemResetWarning,0828.6,5.00,000.00,018.5,018.3,000.0,026.9,020.3,16.8,0000.0,0005.20,0006.89,0005.11
2024-02-11 10:01:00,SystemResetWarning,0828.5,5.00,000.00,018.5,018.2,000.0,026.8,020.2,16.9,0000.0,0005.22,0006.95,0005.12
2024-02-11 10:02:00,SystemResetWarning,0828.5,4.99,000.00,018.5,018.1,000.0,026.8,020.2,16.9,0000.0,0005.21,0006.93,0005.11
2024-02-11 10:03:00,SystemResetWarning,0828.5,5.00,000.00,018.5,018.1,000.0,026.8,020.2,16.9,0000.0,0005.18,0006.94,0005.09
2024-02-11 10:04:00,SystemResetWarning,0828.4,5.02,000.00,018.5,018.0,000.0,026.8,020.2,16.9,0000.0,0005.16,0006.86,0005.07
2024-02-11 10:05:00,SystemResetWarning,0828.5,5.00,000.00,018.5,018.0,000.0,026.9,020.2,16.9,0000.0,0005.15,0006.95,0005.07
2024-02-11 10:06:00,SystemResetWarning,0828.4,5.00,000.00,018.4,017.9,000.0,026.9,020.2,16.9,0000.0,0005.14,0006.84,0005.06
2024-02-11 10:07:00,SystemResetWarning,0828.5,5.00,000.00,018.4,017.9,000.0,026.8,020.1,17.0,0000.0,0005.11,0006.78,0005.04
2024-02-11 10:08:00,SystemResetWarning,0828.5,4.99,000.00,018.4,017.9,000.0,026.8,020.1,17.0,0000.0,0005.09,0006.74,0005.02
2024-02-11 10:09:00,SystemResetWarning,0828.5,5.00,000.00,018.4,017.9,000.0,026.8,020.1,17.0,0000.0,0005.07,0006.67,0005.00
2024-02-11 10:10:00,SystemResetWarning,0828.5,5.00,000.00,018.4,017.9,000.0,026.8,020.1,17.0,0000.0,0005.04,0006.58,0004.99
2024-02-11 10:11:00,SystemResetWarning,0828.5,5.01,000.00,018.4,017.8,000.0,026.8,020.1,17.1,0000.0,0005.04,0006.57,0004.98
2024-02-11 10:12:00,SystemResetWarning,0828.4,5.01,000.00,018.3,017.8,000.0,026.8,020.1,17.1,0000.0,0005.03,0006.53,0004.98
2024-02-11 10:13:00,SystemResetWarning,0828.4,4.98,000.00,018.3,017.8,000.0,026.8,020.1,17.1,0000.0,0005.03,0006.50,0004.99
2024-02-11 10:14:00,SystemResetWarning,0828.4,5.00,000.00,018.3,017.8,000.0,026.8,020.1,17.1,0000.0,0005.03,0006.42,0005.00
2024-02-11 10:15:00,SystemResetWarning,0828.4,5.00,000.00,018.3,017.8,000.0,026.8,020.1,17.1,0000.0,0005.05,0006.41,0005.01
2024-02-11 10:16:00,SystemResetWarning,0828.4,5.00,000.00,018.3,017.8,000.0,026.8,020.1,17.1,0000.0,0005.06,0006.00,0005.03
2024-02-11 10:17:00,SystemResetWarning,0828.4,5.01,000.00,018.3,017.8,000.0,026.8,020.0,17.1,0000.0,0005.07,0005.75,0005.04
2024-02-11 10:18:00,SystemResetWarning,0828.4,5.00,000.00,018.3,017.7,000.0,026.8,020.0,17.1,0000.0,0005.10,0005.81,0005.05
2024-02-11 10:19:00,SystemResetWarning,0828.4,5.00,000.00,018.3,017.7,000.0,026.8,020.0,17.2,0000.0,0005.11,0005.84,0005.06
2024-02-11 10:20:00,SystemResetWarning,0828.4,4.99,000.00,018.2,017.7,000.0,026.8,020.0,17.2,0000.0,0005.12,0005.89,0005.07
2024-02-11 10:21:00,SystemResetWarning,0828.4,4.99,000.00,018.2,017.7,000.0,026.8,020.0,17.2,0000.0,0005.13,0005.94,0005.08
2024-02-11 10:22:00,SystemResetWarning,0828.4,4.99,000.00,018.2,017.7,000.0,026.8,020.0,17.2,0000.0,0005.12,0005.93,0005.07
2024-02-11 10:23:00,SystemResetWarning,0828.4,5.00,000.00,018.2,017.7,000.0,026.8,020.0,17.2,0000.0,0005.13,0005.96,0005.08
2024-02-11 10:24:00,SystemResetWarning,0828.4,5.01,000.00,018.2,017.7,000.0,026.8,020.0,17.2,0000.0,0005.15,0006.02,0005.09
2024-02-11 10:25:00,SystemResetWarning,0828.4,5.01,000.00,018.2,017.7,000.0,026.8,020.0,17.2,0000.0,0005.17,0006.08,0005.10
2024-02-11 10:26:00,SystemResetWarning,0828.4,5.00,000.00,018.2,017.7,000.0,026.8,020.0,17.2,0000.0,0005.18,0006.10,0005.11
2024-02-11 10:27:00,SystemResetWarning,0828.4,4.99,000.00,018.2,017.7,000.0,026.8,020.0,17.2,0000.0,0005.18,0006.07,0005.11
2024-02-11 10:28:00,SystemResetWarning,0828.4,4.99,000.00,018.2,017.7,000.0,026.8,020.0,17.2,0000.0,0005.18,0006.07,0005.11
2024-02-11 10:29:00,SystemResetWarning,0828.4,4.99,000.00,018.2,017.7,000.0,026.8,020.0,17.3,0000.0,0005.17,0006.13,0005.11
2024-02-11 10:30:00,SystemResetWarning,0828.4,5.01,000.00,018.2,017.7,000.0,026.8,020.0,17.3,0000.0,0005.17,0006.12,0005.10
2024-02-11 10:31:00,SystemResetWarning,0828.4,5.01,000.00,018.2,017.7,000.0,026.8,020.0,17.3,0000.0,0005.18,0006.13,0005.11
2024-02-11 10:32:00,SystemResetWarning,0828.4,4.98,000.00,018.2,017.8,000.0,026.8,020.1,17.3,0000.0,0005.18,0006.12,0005.11
2024-02-11 10:33:00,SystemResetWarning,0828.3,5.00,000.00,018.4,018.4,000.0,027.0,020.6,17.2,0000.0,0005.19,0006.14,0005.11
2024-02-11 10:34:00,SystemResetWarning,0828.4,5.01,000.00,018.6,018.9,000.0,027.0,020.8,16.9,0000.0,0005.19,0006.17,0005.11
2024-02-11 10:35:00,SystemResetWarning,0828.4,5.01,000.00,018.6,018.8,000.0,026.9,020.7,16.9,0000.0,0005.18,0006.16,0005.10
2024-02-11 10:36:00,SystemResetWarning,0828.4,5.00,000.00,018.6,018.7,000.0,026.9,020.6,16.9,0000.0,0005.16,0006.50,0005.10
2024-02-11 10:37:00,SystemResetWarning,0828.4,5.00,000.00,018.6,018.6,000.0,026.9,020.4,16.9,0000.0,0005.16,0006.90,0005.09
2024-02-11 10:38:00,SystemResetWarning,0828.4,5.00,000.00,018.6,018.4,000.0,026.9,020.4,16.9,0000.0,0005.16,0006.89,0005.08
2024-02-11 10:39:00,SystemResetWarning,0828.3,4.99,000.00,018.6,018.3,000.0,026.9,020.3,16.9,0000.0,0005.17,0006.92,0005.09
2024-02-11 10:40:00,SystemResetWarning,0828.3,5.00,000.00,018.6,018.2,000.0,026.9,020.3,16.9,0000.0,0005.17,0006.84,0005.10
2024-02-11 10:41:00,SystemResetWarning,0828.3,5.00,000.00,018.6,018.2,000.0,026.9,020.3,16.9,0000.0,0005.19,0006.86,0005.12
2024-02-11 10:42:00,SystemResetWarning,0828.3,5.01,000.00,018.5,018.1,000.0,026.9,020.3,16.9,0000.0,0005.21,0006.96,0005.13
2024-02-11 10:43:00,SystemResetWarning,0828.3,5.01,000.00,018.5,018.1,000.0,026.9,020.2,16.9,0000.0,0005.22,0007.03,0005.14
2024-02-11 10:44:00,SystemResetWarning,0828.3,5.00,000.00,018.5,018.0,000.0,026.9,020.2,16.9,0000.0,0005.22,0007.00,0005.15
2024-02-11 10:45:00,SystemResetWarning,0828.3,4.99,000.00,018.5,018.0,000.0,026.9,020.2,16.9,0000.0,0005.23,0006.98,0005.17
2024-02-11 10:46:00,SystemResetWarning,0828.3,4.99,000.00,018.5,017.9,000.0,026.9,020.2,16.9,0000.0,0005.25,0006.98,0005.20
2024-02-11 10:47:00,SystemResetWarning,0828.4,5.00,000.00,018.4,017.9,000.0,026.9,020.2,16.9,0000.0,0005.29,0006.79,0005.23
2024-02-11 10:48:00,SystemResetWarning,0828.3,5.01,000.00,018.4,017.9,000.0,026.9,020.1,17.0,0000.0,0005.31,0006.29,0005.25
2024-02-11 10:49:00,SystemResetWarning,0828.3,5.00,000.00,018.4,017.8,000.0,026.9,020.1,17.0,0000.0,0005.33,0006.43,0005.28
2024-02-11 10:50:00,SystemResetWarning,0828.3,5.00,000.00,018.4,017.8,000.0,026.9,020.1,17.1,0000.0,0005.36,0006.48,0005.30
2024-02-11 10:51:00,SystemResetWarning,0828.3,5.00,000.00,018.4,017.8,000.0,026.9,020.0,17.1,0000.0,0005.37,0007.26,0005.32
2024-02-11 10:52:00,SystemResetWarning,0828.3,4.99,000.00,018.3,017.8,000.0,026.9,020.0,17.1,0000.0,0005.39,0007.49,0005.33
2024-02-11 10:53:00,SystemResetWarning,0828.4,5.00,000.00,018.3,017.7,000.0,026.9,020.0,17.1,0000.0,0005.41,0007.55,0005.35
2024-02-11 10:54:00,SystemResetWarning,0828.4,4.99,000.00,018.3,017.7,000.0,026.9,020.0,17.2,0000.0,0005.42,0007.69,0005.36
2024-02-11 10:55:00,SystemResetWarning,0828.3,5.00,000.00,018.3,017.6,000.0,026.9,020.0,17.2,0000.0,0005.45,0007.71,0005.38
2024-02-11 10:56:00,SystemResetWarning,0828.3,5.01,000.00,018.3,017.6,000.0,026.9,020.0,17.2,0000.0,0005.48,0007.74,0005.40
2024-02-11 10:57:00,SystemResetWarning,0828.3,5.01,000.00,018.3,017.6,000.0,026.9,020.0,17.2,0000.0,0005.48,0007.75,0005.40
2024-02-11 10:58:00,SystemResetWarning,0828.2,5.01,000.00,018.3,017.6,000.0,026.9,020.0,17.2,0000.0,0005.46,0007.72,0005.39
2024-02-11 10:59:00,SystemResetWarning,0828.2,5.01,000.00,018.2,017.6,000.0,026.9,020.0,17.2,0000.0,0005.46,0007.71,0005.39
